Regional Weather Roundup
Issued by NWS Nashville, TN

Home | Current Version | Previous Version | Text Only | Print | Product List | Glossary On
Versions: 1 2 3 4 5 6 7 8 9 10 11 12 13 14 15 16 17 18 19 20 21 22 23 24 25 26 27 28 29 30 31 32 33 34 35 36 37 38 39 40 41 42 43 44 45 46 47 48 49 50
000
ASUS44 KOHX 140410
RWROHX
MIDDLE TENNESSEE HOURLY WEATHER ROUNDUP
NATIONAL WEATHER SERVICE NASHVILLE TN
1000 PM CST TUE NOV 13 2018

NOTE: "FAIR" INDICATES FEW OR NO CLOUDS BELOW 12,000 FEET WITH
NO SIGNIFICANT WEATHER AND/OR OBSTRUCTIONS TO VISIBILITY.

* THESE REPORTS ARE NOT UNDER NWS QUALITY CONTROL AND MAY NOT
  REPORT WEATHER SUCH AS PRECIPITATION AND FOG.


TNZ005>011-023>034-057-059-062>066-078-080-140500
...NORTHERN MIDDLE TENNESSEE...

CITY           SKY/WX    TMP DP  RH WIND       PRES   REMARKS
CLARKSVILLE    CLOUDY    30  23  75 N10       30.45S WCI  21
CROSSVILLE     CLOUDY    33  32  96 N10       30.31S WCI  25
DICKSON        CLOUDY    30  27  86 NE8G14    30.40F WCI  23
GALLATIN       CLOUDY    34  30  86 N10       30.45S WCI  26
LIVINGSTON     CLOUDY    34  34 100 N10G16    30.34R FOG     WCI  26
NASHVILLE      CLOUDY    34  28  79 N10G21    30.42R WCI  26
PORTLAND       CLOUDY    32  28  86 N8G17     30.42R WCI  25
ROCKWOOD       CLOUDY    36  34  93 N9G18     30.30R FOG     WCI  29
SMYRNA         CLOUDY    35  32  88 N14       30.41S FOG     WCI  26
SPARTA         CLOUDY    36  36 100 VRB6G13   30.34R FOG     WCI  31
SPRINGFIELD    CLOUDY    32  28  86 N10       30.41S WCI  24
WEST NASHVILLE CLOUDY    32  28  86 N12       30.41S WCI  23
$$
TNZ056-058-060-061-075>077-079-093>097-140500
...SOUTHERN MIDDLE TENNESSEE...

CITY           SKY/WX    TMP DP  RH WIND       PRES   REMARKS
COLUMBIA       CLOUDY    34  32  93 N8G14     30.37F WCI  27
FAYETTEVILLE   CLOUDY    34  34 100 N14       30.31F FOG     WCI  24
LAWRENCEBURG   CLOUDY    32  30  93 N12       30.35F FOG     WCI  23
LEWISBURG      CLOUDY    34  32  93 MISG      30.36S
MCMINNVILLE    CLOUDY    37  34  87 N10G16    30.34S WCI  30
MURFREESBORO   CLOUDY    34  34 100 N12       30.38S FOG     WCI  25
PULASKI        CLOUDY    34  32  93 N8G17     30.36R WCI  27
SHELBYVILLE    CLOUDY    34  34 100 N14       30.36S FOG     WCI  24
TULLAHOMA      CLOUDY    34  34 100 N9        30.33R FOG     WCI  26
WINCHESTER     CLOUDY    37  36  93 NE18      30.31F WCI  27
$$


...KEY TO REMARKS...
VSB - VISIBILITY IN MILES
WCI - WIND CHILL INDEX
HX  - HEAT INDEX




USA.gov is the U.S. government's official web portal to all federal, state and local government web resources and services.